Location: Newark
(7.0858°N, 171.3717°E)
Time: 03:06:12
(UTC+00:00)

Transit 4A - Pass Details

Date: 28 November 2020
Orbit: 864 x 980 km, 66.8° (Epoch: 20 January)

Event Time Altitude Azimuth Distance (km) Brightness Sun altitude
Rises 06:31:33 0° 348° (NNW) 3,605 10.9 -4.7°
Reaches altitude 10° 06:34:11 10° 353° (N) 2,645 10.1 -5.3°
Maximum altitude 06:40:10 54° 69° (ENE) 1,103 8.0 -6.7°
Drops below altitude 10° 06:45:59 10° 146° (SE) 2,569 10.1 -8.0°
Sets 06:48:30 0° 150° (SSE) 3,493 10.8 -8.6°
